User: anonymous   Login
Location: Songkhla
(7.2000°N, 100.6000°E)
Time: 01:39:49
(UTC+07:00)
Language:

EGYPTSAT 2 - Orbit

View from above orbital plane
View from above orbital plane
View from above satellite
View from above satellite

Ground track
Ground track

The orbit data is extracted from the following two-line orbital elements,

1 39678U 14021A   21341.41992862 -.00000089  00000-0  20924-4 0  9992
2 39678  51.6227  41.3950 0000945  95.1505 264.9523 14.54248222406413
Epoch (UTC): 07 December 2021 10:04:41
Eccentricity: 0.0000945
inclination: 51.6227°
perigee height: 711 km
apogee height: 712 km
right ascension of ascending node: 41.3950°
argument of perigee: 95.1505°
revolutions per day: 14.54248222
mean anomaly at epoch: 264.9523°
orbit number at epoch: 40641

The dashed part of the orbit path shows where the satellite is in the earth's shadow,  

DLR